Flag for Peru Weather past 2 weeks in Arequipa, Arequipa, Peru

Now
57 °F

Passing clouds.


Feels Like: 56 °F
Forecast: 58 / 75 °F
Wind: 6 mph from Northwest

Location: Arequipa Airport

Current Time: Oct 2, 2014 at 4:07:09 AM

Latest Report: Oct 2, 2014 at 3:00 AM


Visibility: N/A

Pressure: 30.24 "Hg

Humidity: 39%

Dew point: 32 °F

Location of ArequipaLocation

Historic Weather in Arequipa — Graph

°F

Arequipa temperature yesterday

Maximum temperature yesterday: 70 °F (at 11:00 AM)
Minimum temperature yesterday: 55 °F (at 6:00 AM)
Average temperature yesterday: 62 °F

Past Weeks' High & Low Weather Summary

 TemperatureHumidityPressure
High73 °F (Sep 26, 10:00 AM)100% (Sep 20, 3:00 AM)30.42 "Hg (Sep 20, 3:00 AM)
Low46 °F (Sep 21, 5:00 AM)11% (Sep 21, 11:00 AM)30.21 "Hg (Sep 27, 3:00 AM)
Average60 °F28%30.31 "Hg
* Reported Sep 17 3:00 AM — Oct 2 3:00 AM, Arequipa, Weather by CustomWeather, © 2014

Note: Actual official high and low records may vary slightly from our data, if they occured in-between our weather recording intervals... More about our weather records

Advertising

Arequipa weather history for previous 24 hours

 ConditionsComfort  
Time TempWeatherWind HumidityBarometerVisibility
3:00 AM
Oct 2
57 °FPassing clouds.6 mph39%30.24 "HgN/A
2:00 AM57 °FPassing clouds.5 mph39%30.24 "HgN/A
1:00 AM57 °FPassing clouds.6 mph36%30.27 "HgN/A
12:00 AM57 °FPassing clouds.No wind31%30.30 "HgN/A
11:00 PM
Oct 1
57 °FPassing clouds.6 mph31%30.30 "HgN/A
10:00 PM59 °FPassing clouds.3 mph27%30.30 "HgN/A
9:00 PM59 °FPassing clouds.5 mph27%30.30 "HgN/A
8:00 PM61 °FPassing clouds.10 mph25%30.30 "HgN/A
7:00 PM59 °FPassing clouds.No wind31%30.30 "HgN/A
6:00 PM59 °FPassing clouds.5 mph29%30.30 "HgN/A
5:00 PM61 °FScattered clouds.14 mph29%30.27 "HgN/A
4:00 PM64 °FScattered clouds.8 mph24%30.27 "HgN/A
3:00 PM66 °FScattered clouds.7 mph22%30.27 "HgN/A
2:00 PM66 °FPartly sunny.13 mph24%30.27 "HgN/A
1:00 PM66 °FPartly sunny.12 mph24%30.27 "HgN/A
12:00 PM68 °FScattered clouds.13 mph21%30.27 "HgN/A
11:00 AM70 °FScattered clouds.12 mph21%30.30 "HgN/A
10:00 AM68 °FPassing clouds.8 mph23%30.30 "HgN/A
9:00 AM68 °FSunny.5 mph23%30.33 "Hg10 mi
8:00 AM64 °FPassing clouds.6 mph26%30.30 "HgN/A
7:00 AM63 °FSunny.3 mph27%30.30 "Hg10 mi
6:00 AM55 °FSunny.5 mph33%30.27 "Hg10 mi
5:00 AM57 °FClear.6 mph31%30.27 "Hg10 mi
4:00 AM57 °FClear.2 mph31%30.24 "Hg10 mi
Weather by CustomWeather, © 2014

See weather overviewHow to use our weather pages